Powrót do katalogu

STARLINK-6333

AktywnyŁącznośćVLEO
NORAD 56521·PAYLOAD·🇺🇸 United States

Wystrzelony May 14, 2023 z Cape Canaveral Space Force Station

Loading…

Następne Przeloty (najbliższe 24 godziny)

TLE

ŚwieżeSource: CelesTrak SupGP

Epoka: Sep 14, 2026, 21:12 UTC

1 56521C 23065U   26257.88381944  .00031068  00000+0  11254-2 0  2571
2 56521  43.0016 227.6209 0000382 243.1279  59.0881 15.27560243    11

Śledź STARLINK-6333 w czasie rzeczywistym z AllMySat

Download on the App Store